Vorticity
9 7 7 7 6 7 8 5 7 9 8 11 12 7 -0 1 6 7 6 6 6 8 8 7 8 5 2 3 5 8 11 12 13 13 13 13 13 13 13 12 11 10 9 8 8 7 7 8 10 11 11 12 12 11 10 10 9 8 6 5 5 6 8 10 10 10 9 9 8 8 8 7 7 8 8 8 8 7 7 7 8 8 8 9 10
5 6 8 9 8 9 8 7 8 10 10 9 6 3 2 5 8 7 6 6 6 6 7 9 10 7 5 4 1 3 7 9 10 10 10 9 9 9 10 11 12 11 10 9 9 9 8 7 7 7 8 10 10 11 11 11 11 11 10 9 8 7 7 7 7 8 9 9 8 7 7 6 6 6 5 6 7 6 6 5 5 6 6 6 6
1 4 7 8 9 10 10 10 10 8 9 9 9 8 6 7 9 9 8 6 7 9 9 11 12 11 10 9 8 10 10 9 10 11 9 8 8 7 6 6 7 7 7 7 7 8 8 7 6 5 6 6 7 7 8 9 9 9 10 10 10 9 8 8 8 8 8 8 8 7 7 7 6 6 5 5 5 5 5 5 5 5 5 5 5
4 3 5 6 9 9 7 7 8 10 11 10 8 6 4 6 11 13 10 6 7 11 13 14 11 6 6 7 9 13 12 8 8 11 12 11 8 2 -1 1 3 5 6 6 6 6 4 4 5 6 6 6 6 5 5 6 6 6 7 7 7 7 7 7 7 8 9 9 8 7 7 7 6 6 6 5 5 5 4 4 4 4 4 4 4
4 5 8 10 9 4 -2 -2 2 7 10 9 4 -1 -1 3 10 18 19 14 11 10 11 11 5 -0 2 9 12 13 13 12 9 9 8 6 2 -2 -1 3 5 7 8 9 11 10 6 4 5 7 7 6 6 5 3 3 4 5 6 5 5 5 5 5 5 6 7 8 10 10 10 9 8 7 6 6 5 5 5 6 5 5 6 6 6
4 6 8 6 4 -0 -4 -4 -3 1 5 5 1 -1 -1 1 9 18 20 13 6 2 2 5 5 3 5 13 16 12 13 16 13 9 6 4 2 2 6 9 8 6 6 7 12 13 10 7 4 3 4 5 6 7 6 5 4 4 4 4 4 4 5 5 5 4 5 5 6 8 10 11 11 10 9 9 9 8 8 8 7 7 6 6 7
3 3 2 1 -1 -1 -1 -1 -1 1 3 3 3 2 1 1 5 11 10 2 -6 -4 5 10 10 6 4 6 6 1 4 11 13 12 9 6 7 8 10 12 9 6 4 4 9 11 10 10 8 5 3 3 3 3 3 5 6 6 5 3 3 3 4 5 5 4 5 4 4 5 5 7 8 8 8 7 7 7 7 6 6 6 5 5 5
4 3 2 1 1 1 2 2 2 4 5 5 5 3 2 2 2 3 7 8 5 4 9 12 11 6 3 6 7 5 5 4 2 3 1 1 5 6 4 0 -5 -5 -2 -1 1 3 4 6 9 7 3 4 8 8 4 3 3 4 6 6 5 3 2 2 3 4 4 4 4 4 4 4 4 5 6 5 5 4 5 5 4 4 3 3 3
3 3 3 3 3 3 2 3 4 4 4 5 4 3 4 6 5 4 6 10 13 11 10 13 13 4 1 7 11 10 10 7 4 4 2 -1 -2 -3 -2 -3 -8 -8 -4 -3 -1 2 2 4 7 6 -1 -2 5 8 7 6 3 2 3 5 8 7 5 4 3 3 3 3 2 2 3 3 3 3 3 3 3 3 3 3 2 1 0 0 1
3 2 2 1 1 2 2 3 3 2 2 2 2 3 4 5 7 9 6 6 13 15 11 11 8 -2 -3 5 8 6 7 7 6 4 -1 -3 -3 0 5 5 1 -1 1 4 7 10 10 9 9 7 2 -3 -3 -2 -1 2 3 3 1 2 4 6 6 6 6 5 5 4 3 3 2 2 1 2 1 1 1 2 2 1 1 -0 -0 0 1
2 1 1 1 1 1 1 1 1 3 4 4 3 4 6 6 7 8 9 10 12 11 7 6 5 1 2 5 4 2 3 1 -0 -1 -2 -1 2 6 8 7 6 7 9 11 14 14 14 13 11 10 7 4 4 6 6 6 5 4 3 2 3 4 4 4 5 5 5 5 6 6 5 4 2 2 1 2 2 1 2 1 1 0 -1 0 2
3 3 3 3 3 5 6 7 6 6 6 7 8 8 8 8 8 8 10 11 11 10 8 7 4 0 -0 -0 0 3 4 4 5 5 8 10 11 11 12 12 12 12 13 14 15 15 14 13 13 14 13 10 9 9 10 11 10 7 4 4 5 6 6 6 6 4 4 6 6 5 6 6 5 3 2 2 3 3 4 4 3 3 1 -0 1
3 4 6 7 10 12 11 11 13 13 11 10 10 10 11 12 11 11 12 12 11 10 8 6 2 -3 -4 -1 4 9 10 10 10 8 8 10 11 11 11 11 11 11 11 11 10 9 9 9 9 11 12 12 9 7 6 6 7 7 7 7 7 6 5 6 5 3 4 4 2 2 4 5 6 6 4 2 2 2 3 5 6 7 6 5 4
8 11 17 18 13 7 6 12 16 16 14 13 10 9 10 11 11 14 19 19 14 9 6 6 5 3 4 8 12 14 13 12 11 12 11 9 7 5 6 8 10 11 10 8 5 4 4 5 6 7 7 8 8 8 8 8 8 9 11 11 11 10 9 8 8 8 7 6 3 2 2 3 5 8 6 5 5 4 4 4 3 4 4 5 6
7 10 12 8 -1 -2 8 17 17 14 15 18 20 19 18 16 13 13 14 11 6 3 2 1 -0 1 4 10 14 15 12 10 10 9 7 5 4 2 2 5 8 8 6 4 3 2 3 3 6 8 9 9 8 7 8 9 10 11 11 11 11 11 11 11 11 12 11 11 10 8 6 5 6 8 8 8 7 7 6 4 2 -0 -1 0 2
8 6 3 1 2 9 16 13 9 11 15 16 16 18 18 19 17 15 13 9 5 5 7 7 6 5 6 10 14 12 9 9 9 8 7 6 6 6 6 7 8 9 7 4 1 -0 -1 -1 3 9 12 12 11 10 9 9 10 10 11 11 11 10 10 10 10 10 10 10 11 11 10 9 9 8 9 9 9 9 8 7 5 4 2 2 4
16 14 11 11 13 14 11 6 5 9 11 9 10 10 9 11 14 15 16 16 14 13 12 12 13 12 12 13 11 8 7 7 6 5 4 3 3 6 6 5 5 8 7 4 2 0 -3 -5 0 7 12 12 11 10 10 10 10 10 10 10 10 10 10 10 10 10 10 10 10 11 11 11 10 10 10 10 10 10 10 10 10 10 9 9 8
4 3 3 5 6 1 -2 2 7 8 3 -0 2 5 4 4 6 7 9 16 21 19 12 10 11 12 10 4 -0 1 4 4 3 3 2 2 4 6 6 5 6 8 8 7 7 5 1 -3 -1 5 10 11 11 10 10 10 10 11 11 10 11 11 11 11 11 11 11 12 11 11 11 11 12 12 12 12 13 13 13 13 14 14 14 14 14
-12 -13 -11 -7 -4 -7 -5 2 8 9 5 -1 -3 1 2 2 3 2 -1 2 8 7 4 4 6 7 3 -3 -4 2 7 8 9 8 8 9 8 7 8 8 7 6 7 9 8 6 2 -2 -1 5 10 11 11 11 10 10 10 10 11 11 11 12 12 11 11 11 11 11 12 12 12 12 12 13 13 13 14 14 14 14 14 15 14 15 15
1 3 4 6 7 7 9 10 8 6 4 -2 -10 -11 -8 -4 2 5 4 1 -3 -5 -4 -3 -2 -1 -3 -5 -2 3 6 8 10 12 13 11 8 8 8 7 7 8 7 3 0 -0 1 3 5 9 11 12 12 12 11 11 11 11 11 12 12 12 12 11 11 11 11 11 11 12 12 12 12 12 12 12 12 12 12 11 11 11 10 10 10
11 11 11 11 12 12 13 14 13 12 11 5 -3 -8 -7 -3 -0 2 5 6 4 2 4 7 8 9 11 14 18 17 15 13 12 13 12 9 7 8 7 5 7 4 -4 -6 -1 4 9 13 14 13 12 12 12 12 11 11 12 12 12 12 12 12 12 12 12 12 12 13 13 13 12 12 12 11 11 11 10 10 10 10 10 10 11 11 12
10 12 12 12 11 11 11 13 15 16 17 16 14 13 12 11 9 5 3 4 5 6 9 11 13 15 18 21 21 19 19 16 12 11 12 11 9 7 6 6 0 -12 -13 0 13 15 14 15 15 13 13 12 11 11 11 11 11 12 13 13 13 13 12 12 12 12 12 12 12 11 11 10 10 10 10 9 9 10 10 11 12 13 15 16 16
9 9 9 8 8 9 9 10 11 13 15 16 17 18 20 23 23 18 15 15 16 16 15 13 11 12 14 13 8 9 13 10 4 5 7 5 4 3 3 -3 -15 -18 -3 15 17 13 13 13 12 12 11 11 11 11 11 11 11 12 12 12 12 12 13 13 13 12 12 12 11 10 10 9 9 8 9 9 10 11 12 13 14 15 16 16 17
10 9 8 8 8 9 9 9 9 9 9 10 11 11 14 20 22 18 13 13 15 17 17 14 14 14 12 9 7 8 11 6 -3 -3 0 1 3 3 -5 -13 -14 -2 13 16 11 10 12 11 10 11 10 10 11 10 10 11 10 10 11 11 11 12 13 13 13 13 12 12 11 10 9 10 10 11 12 13 14 14 15 15 15 15 15 15 14
11 11 11 12 13 14 14 13 13 12 10 9 8 6 4 8 15 18 15 6 1 -0 -4 -5 5 10 4 1 0 -0 2 2 -3 -4 -0 2 -1 -7 -12 -9 3 12 14 10 9 11 10 10 11 12 11 10 10 9 10 10 10 10 10 11 12 13 13 13 13 13 13 12 11 11 11 12 13 13 14 14 14 14 13 13 13 12 12 12 12
8 7 7 8 7 7 8 9 10 12 13 13 13 12 10 8 8 13 17 13 9 5 -6 -12 -3 4 -1 -2 -1 -4 -3 2 2 -3 -5 -8 -11 -8 0 10 15 14 11 11 12 11 11 13 14 13 12 11 9 9 10 9 10 11 12 12 13 13 13 13 13 13 12 11 11 12 12 12 12 12 12 12 11 11 11 11 11 11 10 10 10
15 14 12 11 10 8 8 7 5 6 7 8 8 9 11 11 9 8 10 11 12 15 10 1 -0 2 1 3 3 -2 -5 -3 -2 -5 -4 -1 4 11 15 16 14 12 12 12 12 12 13 15 15 14 12 10 10 10 10 11 12 13 13 13 14 14 14 13 12 12 11 11 12 12 11 11 11 10 10 9 9 9 9 9 9 9 9 9 9
18 18 18 18 18 17 16 15 13 11 9 8 7 6 5 6 7 7 6 5 5 7 10 8 5 5 6 7 8 6 5 5 5 7 10 14 15 15 14 13 12 13 12 12 12 13 14 14 13 12 11 12 14 14 15 16 16 15 15 16 15 14 13 12 12 13 13 13 12 11 11 10 10 10 10 10 10 9 9 9 10 11 13 14 16
14 15 15 15 16 17 17 18 18 17 16 14 14 14 13 11 10 10 11 12 10 7 7 9 10 10 11 11 10 10 10 9 9 12 13 13 12 13 13 14 13 12 12 13 14 14 14 14 13 13 13 13 13 14 16 17 16 16 16 15 14 14 14 14 14 14 12 12 12 12 12 12 12 12 12 12 12 13 14 15 16 17 18 18 18
12 12 13 13 13 12 12 13 13 14 16 16 15 15 16 17 18 19 19 17 14 13 13 13 14 15 15 14 13 13 13 13 13 15 15 15 15 16 14 13 13 14 14 15 15 15 15 15 14 13 11 8 7 9 12 13 14 14 13 13 15 16 14 12 11 12 14 16 16 15 14 14 13 13 13 13 14 14 13 13 14 15 16 18 20
25 23 22 20 19 18 17 15 14 12 11 12 13 14 14 15 16 18 18 14 17 24 27 23 20 19 17 17 17 15 13 14 14 14 16 16 16 17 17 16 15 15 16 16 16 15 15 16 16 15 12 10 11 12 13 13 13 13 14 16 15 12 11 13 17 20 21 19 16 13 12 11 11 11 11 11 11 11 13 16 21 26 29 31 32
38 37 35 33 30 28 26 25 24 21 17 14 13 13 13 14 14 14 13 12 16 22 23 23 27 30 29 29 27 21 19 21 21 17 17 19 20 19 18 17 16 16 16 16 16 17 17 17 16 16 14 13 13 13 13 13 14 15 16 13 10 12 19 24 24 21 15 10 8 9 10 9 9 10 13 16 20 25 31 35 36 35 33 30 27
26 29 32 34 34 33 33 31 30 28 26 24 20 18 17 16 15 14 12 11 12 11 6 4 9 13 15 17 16 13 15 22 24 19 16 17 19 17 15 15 15 15 16 16 17 18 17 15 14 15 14 12 12 13 14 15 15 13 10 11 18 26 28 22 14 9 6 6 8 9 9 11 15 21 27 32 34 35 33 29 25 22 19 17 16
22 21 20 21 24 27 29 31 32 31 29 28 26 25 24 21 20 19 16 15 15 14 8 1 -5 -10 -11 -10 -8 -3 7 15 21 23 20 16 14 13 12 13 14 14 16 17 17 16 15 15 14 13 12 12 13 13 14 13 11 10 15 24 30 26 15 7 4 4 6 10 11 11 15 22 30 35 34 30 26 23 20 18 18 18 18 18 17
26 26 25 23 21 20 20 22 25 28 29 28 28 28 28 27 24 22 23 25 26 26 26 25 19 11 5 -4 -8 -2 9 15 16 17 15 12 13 14 13 13 14 15 15 15 14 13 13 13 11 11 12 13 13 12 11 10 12 20 29 30 20 8 2 3 4 5 8 12 13 19 28 34 35 30 23 19 18 19 19 19 18 17 16 15 14
23 23 24 24 24 25 25 21 18 19 23 26 27 26 27 29 27 26 26 25 21 17 19 24 26 23 20 15 11 11 15 16 13 9 4 4 10 14 14 12 12 12 13 13 12 12 10 9 10 12 13 12 12 12 13 17 25 31 28 15 4 1 4 3 2 5 10 14 21 32 37 33 26 20 17 18 19 17 13 12 11 11 12 12 11
19 19 20 20 19 21 23 25 22 17 15 19 24 25 24 25 27 27 27 26 21 13 7 8 9 8 9 14 17 17 15 15 16 16 13 10 10 11 11 11 12 12 13 12 10 9 9 11 13 14 13 12 14 16 20 26 30 24 11 2 1 3 4 1 2 6 12 21 33 40 32 20 16 16 16 16 14 10 8 10 12 12 12 12 12
13 16 20 24 25 19 16 21 27 23 15 12 16 22 22 21 22 24 26 29 27 18 12 13 10 5 7 15 20 22 23 21 19 20 18 14 12 11 10 11 13 13 11 10 10 11 13 14 13 13 15 17 19 22 26 28 22 9 1 1 3 2 2 2 3 7 18 32 40 33 19 12 11 12 13 12 10 10 12 14 15 15 13 13 14
22 27 30 37 42 37 26 19 19 24 25 18 12 15 17 17 17 18 20 24 24 18 15 16 11 9 18 21 13 12 21 25 23 22 19 13 10 11 12 12 13 13 11 12 13 14 14 15 15 17 19 20 22 25 25 19 9 1 1 3 2 1 3 4 2 7 23 40 40 24 12 11 11 11 14 15 12 11 13 13 13 14 14 14 15
35 42 41 41 44 46 44 36 26 25 28 23 16 14 12 12 15 15 14 18 22 22 21 18 13 18 31 28 8 1 10 18 19 19 17 13 11 12 13 14 14 14 14 15 16 16 16 18 19 20 20 21 22 22 16 8 3 2 3 2 1 2 4 4 3 6 19 38 43 28 12 10 14 14 15 14 10 9 11 12 12 12 12 13 16
40 44 38 33 34 35 36 36 33 32 33 29 23 17 10 8 10 10 10 13 16 20 27 31 30 34 37 25 7 2 8 16 23 24 18 13 13 14 15 16 17 18 18 18 16 17 18 20 21 20 19 20 19 14 8 4 3 3 2 1 2 3 3 4 5 4 8 27 43 38 21 14 17 17 11 6 9 15 17 14 11 10 10 12 16
45 46 33 25 30 37 40 38 36 36 34 28 20 15 14 14 10 8 12 14 11 18 33 38 37 38 32 15 4 5 7 11 21 24 18 13 12 14 17 20 20 18 17 14 16 20 22 21 19 17 16 15 12 9 7 5 3 2 1 1 2 3 3 4 6 4 2 12 31 42 36 21 13 10 7 4 9 19 21 15 10 8 7 9 15
41 51 42 28 24 32 40 43 42 39 32 26 21 19 20 18 11 10 13 8 7 27 44 32 13 11 12 5 7 15 15 13 14 14 12 14 15 16 18 19 15 13 13 15 20 23 20 15 12 11 11 11 10 8 8 5 2 1 2 2 1 2 4 4 5 6 3 2 13 32 43 34 16 4 1 1 8 18 21 15 10 7 3 5 13
24 36 43 42 36 28 24 23 25 24 21 20 21 23 24 22 15 10 9 8 18 38 40 13 -6 4 17 19 21 22 18 15 11 6 8 16 19 16 16 15 11 12 17 20 20 16 12 9 9 8 9 10 11 9 6 3 2 2 2 1 1 2 3 4 5 6 5 2 2 13 31 41 35 20 6 -1 3 14 19 14 10 7 4 4 9
13 14 17 25 32 33 30 29 31 30 26 24 21 17 17 18 14 9 13 24 35 35 23 10 13 23 23 17 14 12 8 5 -0 -2 8 20 20 14 13 13 12 13 16 16 13 10 9 8 7 7 10 12 11 8 5 2 2 3 2 1 2 2 2 3 6 5 5 5 3 3 11 25 37 38 26 8 0 6 14 14 10 7 6 6 8
15 15 12 10 12 15 17 17 19 24 29 35 38 34 26 21 19 21 28 33 30 22 18 20 20 12 1 0 8 11 8 2 -3 1 14 22 17 12 12 12 10 10 12 11 9 9 8 7 6 9 12 12 9 7 5 3 2 3 2 0 2 3 2 2 5 6 5 5 4 4 4 7 18 33 38 28 12 5 8 12 11 9 7 7 10
11 15 18 18 17 16 13 10 9 11 13 18 29 40 44 41 36 35 34 28 21 18 18 14 5 -0 5 12 13 8 6 5 6 13 19 19 14 11 11 10 10 12 13 11 10 8 6 6 8 11 12 10 8 7 5 3 2 3 2 1 2 3 3 3 3 5 6 5 5 5 5 3 5 14 27 35 31 19 10 7 9 9 7 5 7
10 10 11 11 9 7 6 5 8 13 17 16 15 19 28 36 40 38 31 20 10 5 7 10 12 16 20 14 6 5 11 16 17 19 18 14 11 11 13 14 15 14 12 10 8 7 6 8 10 11 9 8 8 8 5 4 4 4 3 3 3 3 3 4 4 4 4 5 6 6 6 5 3 3 9 22 32 32 23 14 8 6 6 5 5
13 11 10 10 9 8 6 3 1 4 12 20 21 18 22 32 34 26 14 5 -2 -3 5 15 19 19 16 10 8 14 20 19 17 16 14 10 10 15 20 20 16 10 8 7 7 7 8 10 11 10 8 8 9 8 6 5 6 5 4 4 5 3 2 3 3 4 4 4 5 6 6 6 6 4 3 7 16 27 32 28 19 11 6 3 3
20 18 14 11 9 9 10 11 11 8 6 6 9 12 18 25 21 9 0 1 4 6 10 12 9 8 10 11 11 14 17 15 11 11 11 12 17 22 22 16 9 5 7 7 6 7 10 10 8 8 8 8 8 8 7 7 7 6 5 5 4 4 3 2 2 3 4 4 4 5 5 5 6 6 5 4 5 11 21 29 31 27 18 8 3
17 20 20 20 18 15 12 11 13 14 12 9 8 8 9 11 10 7 8 11 12 10 9 7 5 7 13 15 14 13 12 9 9 13 19 22 23 20 14 7 5 6 8 8 7 8 8 7 6 7 8 8 7 7 8 8 8 6 5 5 5 4 4 4 2 2 3 4 4 4 4 5 6 6 6 5 4 4 7 15 24 31 32 24 15
Height
5744 5744 5745 5746 5746 5746 5747 5747 5747 5748 5748 5748 5747 5747 5747 5747 5747 5748 5748 5748 5748 5749 5749 5750 5750 5750 5750 5750 5750 5750 5751 5751 5751 5751 5752 5752 5752 5752 5751 5751 5750 5750 5750 5750 5751 5751 5751 5751 5751 5751 5751 5752 5752 5752 5752 5752 5752 5752 5752 5752 5752 5752 5752 5752 5752 5752 5752 5752 5751 5751 5751 5751 5750 5750 5750 5750 5750 5750 5750 5750 5750 5750 5750 5750 5750
5741 5742 5743 5743 5744 5745 5745 5745 5746 5746 5746 5746 5746 5746 5746 5746 5746 5746 5746 5746 5745 5746 5747 5747 5747 5748 5748 5748 5748 5749 5749 5749 5749 5749 5749 5749 5749 5749 5749 5749 5749 5749 5748 5748 5749 5749 5749 5749 5749 5749 5749 5750 5750 5750 5750 5750 5750 5750 5750 5750 5750 5750 5750 5750 5750 5750 5750 5750 5749 5749 5749 5749 5748 5748 5748 5748 5747 5747 5747 5747 5747 5748 5748 5748 5748
5738 5739 5740 5741 5742 5742 5743 5743 5743 5744 5744 5744 5744 5744 5744 5744 5744 5744 5744 5744 5743 5743 5744 5745 5745 5745 5746 5746 5746 5746 5747 5747 5747 5747 5747 5747 5747 5746 5747 5747 5747 5747 5747 5747 5747 5747 5747 5747 5748 5748 5748 5747 5748 5748 5748 5748 5748 5747 5748 5747 5747 5747 5747 5747 5748 5748 5748 5747 5747 5747 5747 5746 5746 5746 5746 5745 5745 5745 5745 5745 5745 5745 5745 5745 5745
5735 5736 5737 5738 5739 5740 5740 5740 5740 5741 5741 5742 5742 5742 5742 5742 5743 5742 5742 5742 5741 5741 5741 5742 5742 5743 5743 5744 5744 5744 5744 5744 5744 5744 5745 5745 5745 5744 5744 5744 5744 5744 5745 5745 5745 5745 5745 5745 5745 5746 5746 5745 5745 5745 5745 5745 5745 5745 5745 5745 5745 5745 5745 5745 5745 5745 5745 5745 5745 5745 5744 5744 5744 5744 5743 5743 5743 5742 5742 5742 5742 5742 5742 5742 5742
5732 5733 5734 5735 5736 5736 5737 5737 5737 5738 5738 5739 5740 5740 5740 5740 5740 5740 5739 5739 5739 5739 5738 5739 5739 5740 5740 5741 5741 5741 5741 5741 5742 5742 5742 5742 5742 5742 5742 5742 5742 5742 5742 5742 5742 5742 5743 5743 5743 5743 5743 5743 5743 5743 5742 5742 5742 5743 5743 5742 5742 5742 5742 5742 5742 5742 5742 5742 5742 5742 5742 5741 5741 5741 5740 5740 5740 5739 5739 5739 5739 5739 5739 5739 5739
5730 5730 5731 5731 5732 5733 5733 5733 5734 5734 5735 5736 5736 5737 5737 5737 5737 5737 5737 5737 5737 5737 5736 5736 5737 5737 5737 5737 5737 5738 5738 5738 5738 5739 5739 5739 5739 5739 5739 5739 5739 5739 5739 5739 5739 5740 5740 5740 5740 5740 5740 5740 5740 5740 5740 5740 5739 5739 5739 5739 5739 5739 5738 5738 5738 5738 5738 5738 5738 5738 5738 5738 5738 5738 5737 5737 5737 5736 5736 5736 5736 5736 5736 5736 5736
5726 5727 5728 5728 5729 5729 5729 5730 5730 5731 5731 5732 5732 5733 5733 5734 5734 5734 5734 5734 5734 5734 5734 5734 5734 5734 5733 5734 5734 5734 5734 5734 5735 5735 5736 5736 5736 5736 5736 5736 5736 5736 5736 5736 5737 5737 5737 5738 5738 5738 5738 5737 5737 5737 5737 5736 5736 5736 5736 5736 5735 5735 5735 5734 5734 5734 5734 5734 5734 5734 5734 5734 5734 5734 5734 5734 5733 5733 5733 5733 5732 5732 5732 5732 5732
5723 5724 5724 5725 5725 5725 5725 5726 5726 5727 5727 5728 5728 5729 5729 5730 5730 5730 5730 5731 5731 5731 5730 5731 5731 5730 5730 5730 5731 5731 5731 5731 5731 5731 5732 5733 5733 5733 5733 5733 5733 5733 5733 5734 5734 5734 5734 5735 5735 5735 5735 5734 5734 5734 5733 5733 5733 5733 5732 5732 5732 5732 5731 5731 5730 5730 5730 5730 5730 5730 5730 5730 5730 5730 5730 5730 5729 5729 5729 5729 5729 5729 5728 5728 5728
5719 5720 5720 5720 5720 5721 5721 5721 5721 5722 5723 5724 5724 5724 5725 5726 5726 5726 5726 5726 5727 5727 5726 5726 5727 5727 5727 5727 5727 5727 5728 5728 5728 5728 5729 5729 5729 5729 5729 5730 5729 5730 5730 5730 5730 5730 5730 5731 5731 5731 5731 5729 5729 5729 5729 5729 5729 5729 5729 5729 5729 5728 5727 5727 5726 5726 5726 5726 5725 5725 5725 5725 5724 5724 5724 5725 5725 5725 5725 5725 5725 5725 5724 5723 5723
5714 5715 5715 5715 5715 5715 5716 5716 5716 5717 5717 5718 5719 5719 5720 5720 5721 5721 5721 5721 5722 5722 5722 5722 5722 5723 5723 5723 5723 5723 5723 5724 5724 5725 5725 5725 5725 5725 5726 5726 5726 5726 5726 5726 5726 5726 5726 5726 5726 5726 5726 5725 5725 5725 5725 5725 5725 5725 5724 5725 5725 5724 5723 5723 5723 5722 5722 5722 5722 5721 5720 5720 5719 5719 5719 5719 5719 5719 5719 5720 5720 5720 5719 5719 5718
5709 5710 5710 5710 5710 5710 5710 5710 5710 5711 5712 5713 5713 5714 5714 5714 5715 5715 5716 5716 5716 5717 5717 5717 5717 5718 5718 5718 5718 5718 5718 5719 5720 5720 5720 5721 5721 5721 5721 5721 5721 5721 5721 5721 5720 5720 5720 5720 5720 5721 5721 5721 5721 5720 5720 5720 5720 5719 5719 5719 5719 5719 5719 5718 5718 5718 5718 5718 5718 5717 5716 5715 5714 5714 5714 5714 5714 5714 5714 5714 5714 5714 5714 5714 5713
5704 5704 5704 5704 5704 5704 5704 5704 5704 5705 5705 5706 5707 5707 5708 5708 5709 5710 5710 5711 5711 5712 5712 5712 5712 5713 5713 5713 5713 5713 5714 5714 5715 5715 5715 5716 5716 5716 5716 5716 5716 5716 5716 5715 5715 5715 5715 5715 5715 5716 5716 5716 5716 5714 5714 5714 5714 5714 5714 5714 5713 5713 5713 5713 5713 5713 5713 5713 5712 5712 5711 5709 5709 5709 5709 5709 5709 5708 5708 5708 5708 5708 5708 5708 5708
5697 5698 5698 5698 5698 5698 5698 5698 5698 5698 5698 5699 5700 5700 5701 5702 5703 5703 5704 5705 5705 5706 5707 5707 5707 5707 5707 5707 5708 5708 5709 5709 5709 5710 5710 5710 5710 5710 5711 5710 5710 5710 5710 5710 5710 5710 5710 5710 5710 5710 5710 5711 5710 5709 5708 5708 5708 5708 5708 5708 5707 5707 5707 5707 5707 5707 5707 5707 5706 5706 5704 5703 5703 5703 5702 5702 5702 5702 5702 5701 5701 5701 5701 5701 5701
5689 5690 5691 5691 5691 5691 5691 5691 5691 5692 5692 5692 5693 5694 5695 5696 5698 5699 5699 5699 5699 5701 5702 5702 5701 5701 5701 5702 5702 5703 5703 5703 5704 5705 5705 5705 5705 5705 5705 5705 5705 5705 5705 5705 5705 5705 5706 5706 5705 5705 5705 5705 5704 5704 5703 5703 5702 5702 5702 5701 5701 5701 5701 5700 5700 5700 5700 5700 5699 5699 5698 5697 5696 5696 5696 5695 5695 5695 5695 5694 5694 5694 5694 5693 5693
5682 5683 5684 5684 5685 5685 5685 5685 5685 5685 5685 5685 5686 5687 5688 5690 5693 5694 5694 5693 5693 5694 5695 5695 5694 5695 5695 5696 5697 5697 5697 5698 5698 5699 5699 5700 5700 5700 5700 5700 5700 5700 5700 5700 5701 5701 5701 5701 5701 5700 5700 5699 5698 5698 5697 5697 5696 5695 5695 5695 5694 5694 5694 5693 5693 5693 5693 5693 5692 5691 5691 5690 5690 5689 5689 5689 5688 5688 5687 5687 5686 5686 5686 5685 5684
5676 5677 5678 5677 5677 5678 5678 5679 5679 5679 5678 5678 5679 5680 5681 5683 5685 5686 5687 5686 5686 5687 5688 5688 5688 5689 5689 5690 5691 5691 5692 5693 5693 5693 5694 5694 5694 5694 5695 5695 5695 5695 5695 5695 5696 5696 5696 5696 5695 5695 5694 5693 5692 5692 5691 5690 5689 5688 5688 5687 5687 5687 5686 5686 5686 5686 5685 5685 5684 5683 5683 5682 5682 5681 5681 5681 5680 5680 5680 5679 5679 5678 5678 5677 5676
5670 5671 5672 5671 5672 5672 5672 5673 5673 5673 5672 5672 5672 5673 5674 5675 5676 5677 5678 5679 5679 5680 5681 5681 5682 5683 5683 5684 5684 5685 5686 5687 5687 5688 5688 5688 5689 5689 5689 5689 5690 5690 5690 5690 5690 5690 5690 5690 5689 5689 5688 5687 5686 5685 5684 5683 5682 5682 5681 5680 5680 5680 5679 5679 5679 5678 5678 5677 5676 5676 5675 5674 5674 5673 5672 5672 5672 5671 5671 5671 5670 5669 5669 5669 5668
5663 5664 5665 5665 5666 5666 5667 5667 5667 5667 5666 5666 5666 5667 5668 5668 5669 5671 5672 5672 5672 5673 5674 5674 5675 5676 5677 5677 5678 5679 5680 5680 5681 5681 5682 5682 5682 5683 5683 5683 5684 5684 5685 5685 5685 5685 5684 5684 5683 5683 5682 5681 5680 5679 5678 5677 5676 5675 5675 5674 5674 5673 5673 5672 5671 5671 5670 5670 5669 5668 5667 5667 5666 5665 5664 5664 5663 5663 5662 5661 5661 5660 5660 5659 5659
5656 5657 5658 5658 5658 5659 5660 5660 5661 5661 5661 5660 5660 5661 5662 5662 5663 5665 5665 5666 5666 5667 5667 5668 5669 5670 5671 5671 5672 5672 5673 5673 5674 5674 5675 5675 5676 5676 5676 5677 5677 5678 5678 5679 5679 5678 5678 5677 5677 5676 5676 5675 5674 5673 5672 5671 5670 5669 5668 5668 5667 5667 5666 5665 5664 5663 5663 5662 5661 5661 5660 5659 5658 5657 5656 5656 5655 5654 5654 5653 5652 5651 5651 5650 5649
5648 5649 5649 5650 5650 5651 5651 5652 5653 5654 5654 5654 5654 5654 5655 5656 5657 5658 5659 5659 5660 5660 5661 5662 5663 5663 5664 5665 5665 5666 5666 5666 5667 5668 5668 5669 5669 5670 5670 5671 5671 5672 5672 5672 5672 5672 5671 5671 5670 5670 5669 5669 5668 5667 5666 5665 5664 5663 5662 5661 5661 5660 5659 5659 5657 5657 5656 5655 5654 5653 5652 5651 5650 5649 5649 5648 5647 5646 5645 5644 5643 5642 5642 5641 5640
5638 5639 5639 5640 5641 5641 5642 5643 5644 5645 5646 5646 5647 5647 5648 5649 5650 5651 5651 5652 5652 5653 5654 5655 5656 5656 5657 5658 5658 5659 5659 5659 5660 5661 5662 5662 5663 5664 5664 5665 5665 5666 5666 5666 5666 5665 5665 5664 5664 5663 5663 5662 5662 5661 5660 5659 5658 5657 5656 5655 5654 5654 5653 5652 5651 5650 5649 5648 5647 5646 5645 5644 5643 5642 5641 5640 5639 5638 5637 5636 5635 5634 5633 5631 5630
5628 5629 5629 5630 5631 5632 5633 5633 5634 5635 5636 5637 5638 5639 5640 5641 5642 5643 5643 5644 5645 5646 5647 5647 5648 5649 5650 5650 5651 5651 5652 5653 5653 5654 5655 5656 5657 5658 5658 5659 5659 5659 5659 5659 5659 5658 5658 5657 5657 5656 5656 5655 5655 5654 5653 5652 5651 5650 5649 5649 5648 5647 5646 5645 5643 5642 5641 5640 5640 5639 5638 5637 5636 5635 5634 5632 5631 5630 5628 5627 5626 5624 5623 5621 5620
5619 5619 5619 5620 5621 5621 5623 5624 5625 5626 5627 5628 5629 5630 5631 5632 5633 5634 5635 5636 5637 5638 5639 5640 5640 5641 5642 5642 5643 5644 5645 5645 5646 5647 5649 5650 5651 5651 5652 5652 5652 5652 5652 5652 5651 5651 5651 5650 5650 5650 5649 5648 5648 5647 5646 5645 5644 5644 5643 5642 5641 5640 5639 5638 5637 5636 5635 5634 5633 5632 5631 5630 5629 5627 5626 5624 5623 5621 5619 5618 5616 5615 5613 5612 5610
5610 5610 5610 5611 5611 5612 5613 5614 5615 5616 5617 5618 5620 5621 5622 5623 5625 5626 5627 5628 5629 5630 5632 5632 5633 5633 5634 5635 5636 5637 5637 5638 5639 5641 5642 5643 5644 5644 5645 5645 5645 5645 5645 5645 5644 5644 5644 5644 5643 5643 5642 5641 5640 5640 5639 5639 5638 5637 5636 5635 5634 5633 5632 5631 5630 5629 5628 5627 5626 5625 5624 5622 5621 5620 5618 5616 5614 5612 5611 5609 5608 5606 5605 5603 5602
5600 5600 5601 5601 5602 5602 5603 5604 5605 5606 5607 5609 5610 5612 5613 5615 5616 5618 5619 5620 5621 5622 5624 5625 5625 5626 5627 5628 5628 5629 5630 5631 5633 5634 5635 5635 5636 5637 5638 5638 5638 5638 5638 5638 5637 5637 5637 5637 5637 5636 5635 5634 5633 5633 5632 5632 5631 5630 5629 5628 5627 5626 5625 5624 5624 5623 5622 5621 5620 5618 5617 5615 5613 5612 5610 5608 5606 5604 5603 5602 5600 5598 5596 5595 5594
5588 5589 5590 5591 5591 5592 5593 5594 5595 5596 5598 5599 5600 5602 5603 5605 5607 5609 5610 5611 5612 5613 5615 5616 5616 5617 5618 5618 5619 5621 5622 5624 5625 5626 5627 5628 5629 5630 5631 5631 5631 5631 5631 5630 5630 5630 5630 5630 5630 5630 5629 5628 5627 5626 5625 5625 5624 5623 5622 5621 5621 5620 5619 5618 5617 5616 5615 5614 5613 5611 5610 5608 5606 5604 5602 5601 5599 5597 5595 5594 5592 5590 5589 5587 5586
5576 5577 5577 5578 5579 5581 5582 5583 5584 5586 5587 5589 5591 5592 5593 5595 5597 5599 5601 5602 5603 5604 5605 5607 5607 5607 5608 5609 5611 5613 5615 5616 5617 5619 5620 5621 5622 5623 5623 5623 5623 5624 5624 5624 5623 5623 5623 5623 5623 5623 5622 5621 5620 5619 5619 5618 5618 5617 5616 5615 5615 5614 5613 5612 5611 5610 5609 5608 5606 5604 5603 5601 5599 5597 5595 5593 5591 5589 5587 5586 5584 5583 5581 5579 5578
5565 5565 5566 5566 5567 5568 5569 5571 5572 5574 5576 5578 5580 5582 5584 5585 5587 5589 5591 5593 5594 5595 5596 5597 5598 5599 5600 5601 5603 5605 5607 5608 5610 5611 5613 5614 5614 5615 5615 5616 5616 5617 5617 5617 5617 5617 5617 5616 5616 5616 5615 5615 5614 5613 5612 5612 5612 5611 5610 5610 5609 5609 5608 5607 5606 5604 5603 5601 5600 5598 5596 5594 5592 5590 5588 5586 5583 5581 5579 5578 5576 5574 5572 5571 5569
5554 5555 5555 5555 5556 5556 5557 5558 5560 5561 5563 5565 5568 5570 5573 5575 5578 5580 5582 5583 5585 5585 5587 5588 5590 5591 5592 5593 5595 5597 5598 5600 5602 5604 5605 5606 5607 5607 5608 5608 5609 5609 5610 5610 5610 5610 5610 5610 5609 5609 5608 5608 5608 5607 5607 5606 5606 5606 5605 5605 5604 5603 5602 5601 5600 5598 5597 5595 5593 5591 5589 5587 5585 5583 5580 5578 5576 5574 5572 5570 5568 5566 5564 5562 5560
5543 5544 5544 5544 5545 5545 5545 5546 5548 5549 5551 5553 5555 5558 5561 5564 5567 5571 5572 5573 5575 5576 5578 5580 5581 5582 5583 5584 5586 5589 5590 5592 5595 5597 5597 5598 5599 5600 5601 5601 5602 5602 5603 5603 5603 5603 5603 5603 5603 5602 5602 5602 5602 5602 5601 5601 5601 5600 5600 5599 5599 5598 5597 5596 5594 5592 5591 5589 5587 5585 5583 5580 5578 5576 5573 5571 5569 5566 5564 5562 5560 5558 5556 5554 5552
5532 5532 5532 5532 5533 5533 5534 5535 5536 5538 5540 5542 5543 5546 5549 5553 5556 5559 5562 5565 5566 5568 5570 5571 5572 5573 5574 5575 5577 5579 5581 5584 5587 5588 5589 5590 5591 5592 5593 5594 5594 5595 5596 5596 5596 5596 5596 5596 5596 5596 5597 5597 5596 5596 5596 5596 5595 5595 5595 5594 5593 5592 5591 5590 5588 5587 5585 5583 5581 5579 5576 5574 5572 5569 5567 5565 5562 5559 5557 5554 5553 5551 5549 5546 5544
5521 5521 5521 5521 5521 5521 5522 5523 5524 5525 5528 5531 5533 5535 5539 5543 5546 5548 5551 5556 5559 5560 5563 5565 5566 5567 5568 5569 5570 5571 5574 5577 5579 5580 5581 5583 5584 5585 5586 5587 5587 5588 5589 5589 5589 5589 5590 5590 5591 5591 5591 5591 5591 5591 5591 5591 5590 5590 5589 5589 5588 5587 5586 5585 5583 5582 5580 5578 5576 5573 5571 5568 5566 5563 5561 5558 5555 5552 5550 5548 5546 5544 5542 5540 5539
5512 5512 5511 5511 5510 5510 5510 5511 5512 5513 5515 5518 5522 5524 5528 5532 5535 5538 5542 5546 5550 5553 5557 5560 5562 5561 5561 5562 5563 5565 5568 5571 5572 5572 5574 5576 5578 5578 5579 5580 5581 5581 5582 5583 5583 5584 5584 5585 5585 5585 5585 5586 5586 5586 5586 5586 5585 5585 5584 5584 5583 5582 5582 5580 5579 5578 5576 5573 5570 5567 5565 5562 5559 5557 5553 5551 5548 5546 5544 5542 5541 5539 5538 5536 5535
5505 5504 5504 5503 5502 5501 5501 5501 5502 5503 5505 5507 5511 5514 5518 5521 5525 5529 5532 5536 5541 5545 5548 5551 5553 5554 5554 5555 5557 5559 5562 5565 5566 5567 5568 5569 5570 5571 5572 5573 5575 5575 5576 5577 5578 5578 5579 5579 5580 5580 5580 5581 5581 5581 5581 5581 5581 5580 5580 5580 5579 5579 5578 5577 5575 5573 5571 5568 5564 5561 5558 5555 5553 5550 5547 5545 5543 5542 5540 5539 5537 5536 5534 5533 5531
5499 5498 5497 5495 5494 5494 5494 5494 5495 5495 5496 5498 5501 5505 5508 5512 5515 5519 5524 5528 5532 5535 5538 5542 5545 5547 5547 5549 5551 5554 5557 5559 5561 5562 5562 5562 5564 5566 5567 5568 5569 5570 5571 5572 5572 5573 5574 5574 5574 5575 5576 5576 5576 5576 5576 5577 5577 5576 5576 5576 5576 5576 5575 5573 5572 5569 5565 5562 5558 5555 5552 5549 5547 5545 5543 5541 5540 5539 5537 5536 5535 5533 5531 5529 5527
5493 5492 5490 5489 5487 5487 5487 5487 5488 5489 5490 5492 5494 5497 5500 5504 5507 5511 5516 5521 5525 5528 5531 5534 5536 5538 5539 5542 5545 5549 5551 5554 5556 5557 5557 5557 5559 5560 5561 5562 5563 5565 5566 5567 5568 5568 5569 5569 5570 5571 5571 5571 5572 5572 5572 5573 5573 5573 5573 5574 5573 5573 5572 5570 5568 5564 5560 5557 5553 5550 5547 5544 5543 5541 5540 5539 5538 5536 5535 5533 5531 5530 5528 5526 5524
5488 5486 5484 5482 5481 5480 5480 5480 5481 5482 5484 5486 5488 5491 5494 5497 5501 5504 5508 5513 5517 5521 5524 5526 5528 5530 5533 5536 5540 5544 5546 5547 5549 5551 5552 5552 5553 5554 5555 5557 5559 5561 5561 5562 5562 5563 5564 5565 5566 5566 5567 5567 5568 5568 5569 5569 5570 5570 5571 5571 5571 5570 5569 5567 5564 5561 5557 5552 5549 5545 5543 5541 5540 5539 5538 5537 5535 5534 5532 5531 5529 5527 5525 5523 5522
5483 5480 5477 5475 5473 5473 5473 5473 5474 5476 5478 5481 5483 5486 5489 5493 5495 5499 5502 5506 5510 5514 5517 5519 5521 5525 5529 5533 5536 5538 5540 5541 5543 5545 5546 5547 5548 5549 5550 5553 5555 5556 5557 5557 5558 5558 5560 5561 5561 5562 5563 5564 5564 5565 5566 5567 5567 5568 5569 5569 5568 5567 5566 5563 5561 5558 5553 5549 5545 5542 5541 5539 5538 5537 5536 5535 5533 5532 5530 5528 5527 5525 5523 5521 5519
5478 5473 5469 5467 5465 5465 5465 5467 5468 5470 5473 5476 5479 5482 5485 5488 5491 5494 5498 5501 5504 5508 5511 5513 5516 5520 5525 5529 5531 5533 5534 5535 5537 5539 5540 5541 5543 5545 5547 5549 5551 5551 5552 5552 5553 5555 5556 5557 5558 5558 5559 5560 5561 5562 5563 5564 5565 5566 5566 5566 5565 5564 5563 5561 5559 5555 5551 5546 5542 5540 5539 5537 5536 5535 5534 5533 5531 5530 5528 5526 5525 5523 5521 5519 5517
5473 5467 5463 5460 5459 5458 5459 5460 5463 5465 5468 5471 5475 5478 5482 5485 5488 5491 5493 5496 5499 5502 5505 5507 5510 5514 5519 5523 5526 5528 5529 5531 5532 5533 5535 5537 5539 5541 5544 5545 5546 5547 5547 5549 5550 5551 5552 5553 5554 5555 5556 5557 5559 5560 5561 5562 5563 5563 5564 5563 5563 5562 5560 5559 5557 5554 5549 5544 5540 5538 5537 5536 5535 5534 5533 5531 5530 5528 5526 5525 5523 5521 5520 5518 5516
5469 5463 5460 5457 5456 5455 5455 5457 5459 5461 5464 5467 5471 5475 5478 5481 5484 5487 5490 5492 5495 5498 5500 5503 5506 5509 5513 5517 5521 5525 5527 5528 5528 5529 5531 5533 5536 5538 5540 5541 5542 5543 5544 5545 5546 5548 5549 5550 5551 5553 5554 5555 5556 5558 5559 5560 5561 5561 5561 5561 5561 5560 5558 5557 5555 5552 5548 5544 5539 5536 5535 5534 5533 5532 5531 5530 5528 5526 5525 5523 5522 5520 5518 5516 5514
5467 5462 5459 5457 5456 5455 5455 5455 5457 5459 5462 5465 5468 5471 5474 5478 5481 5484 5486 5489 5492 5494 5496 5498 5501 5504 5508 5512 5516 5520 5522 5523 5524 5526 5528 5530 5532 5535 5536 5537 5538 5539 5541 5542 5543 5545 5546 5548 5549 5550 5552 5553 5554 5555 5557 5558 5558 5559 5559 5559 5558 5557 5556 5555 5553 5550 5547 5543 5539 5535 5533 5532 5531 5530 5529 5528 5527 5525 5523 5522 5520 5518 5517 5515 5513
5469 5464 5460 5459 5457 5456 5456 5456 5457 5459 5461 5464 5467 5470 5472 5476 5479 5481 5484 5487 5490 5491 5492 5494 5497 5500 5504 5508 5511 5514 5516 5519 5521 5524 5526 5528 5530 5532 5533 5534 5535 5537 5538 5539 5541 5543 5544 5545 5547 5548 5550 5551 5552 5553 5554 5555 5556 5556 5556 5556 5556 5555 5554 5553 5551 5548 5545 5542 5538 5535 5532 5531 5530 5529 5528 5526 5525 5523 5521 5520 5518 5517 5516 5514 5512
5472 5467 5464 5461 5460 5459 5459 5459 5460 5461 5463 5465 5467 5470 5472 5474 5477 5479 5482 5485 5487 5489 5491 5492 5495 5498 5502 5505 5508 5510 5514 5517 5520 5522 5524 5526 5527 5529 5530 5531 5533 5534 5536 5538 5539 5541 5542 5543 5545 5546 5548 5549 5550 5551 5552 5553 5554 5554 5554 5554 5554 5553 5552 5551 5549 5547 5544 5541 5538 5535 5532 5530 5528 5527 5526 5525 5523 5521 5520 5518 5517 5516 5515 5513 5511
5476 5472 5469 5466 5464 5463 5462 5462 5463 5464 5465 5466 5468 5469 5471 5473 5476 5478 5481 5484 5486 5488 5490 5492 5495 5497 5500 5504 5507 5509 5512 5515 5518 5521 5522 5524 5525 5526 5528 5529 5530 5532 5535 5536 5537 5539 5540 5542 5543 5544 5546 5547 5548 5549 5550 5551 5551 5552 5552 5552 5551 5551 5550 5549 5548 5546 5543 5541 5538 5536 5533 5530 5528 5526 5524 5523 5522 5520 5518 5517 5516 5515 5513 5512 5510
5480 5477 5474 5472 5470 5469 5468 5467 5467 5467 5467 5467 5468 5469 5470 5472 5474 5477 5480 5482 5484 5487 5489 5492 5495 5498 5501 5503 5506 5508 5511 5514 5517 5519 5520 5521 5523 5524 5525 5527 5529 5531 5533 5534 5535 5537 5539 5540 5541 5543 5544 5545 5546 5547 5548 5548 5549 5549 5550 5549 5549 5549 5548 5547 5546 5545 5542 5540 5538 5536 5533 5531 5528 5525 5523 5522 5520 5519 5518 5516 5515 5514 5512 5511 5510
5483 5480 5478 5476 5475 5473 5472 5472 5471 5470 5470 5470 5469 5469 5470 5471 5473 5476 5479 5481 5484 5487 5490 5493 5496 5499 5501 5503 5505 5508 5511 5513 5515 5517 5518 5519 5521 5522 5523 5526 5528 5530 5531 5532 5534 5535 5537 5538 5540 5541 5542 5543 5544 5545 5546 5546 5547 5547 5548 5547 5547 5547 5546 5546 5544 5543 5541 5539 5537 5535 5533 5531 5528 5525 5523 5521 5519 5518 5517 5515 5514 5513 5512 5510 5509
5485 5483 5482 5480 5479 5477 5476 5475 5475 5474 5473 5473 5473 5473 5473 5473 5475 5477 5480 5483 5486 5489 5492 5494 5497 5499 5501 5503 5505 5508 5510 5512 5513 5514 5516 5517 5519 5520 5522 5524 5526 5527 5529 5530 5532 5534 5535 5537 5538 5539 5540 5540 5541 5542 5543 5544 5545 5545 5546 5546 5545 5545 5544 5544 5543 5541 5540 5538 5537 5535 5533 5530 5528 5526 5523 5521 5519 5517 5515 5514 5513 5511 5510 5509 5508
5487 5486 5484 5483 5482 5481 5480 5479 5478 5478 5477 5477 5477 5477 5478 5479 5480 5483 5485 5487 5490 5492 5494 5495 5497 5499 5501 5503 5505 5507 5509 5510 5511 5512 5514 5515 5517 5519 5521 5523 5524 5526 5527 5529 5531 5532 5534 5535 5536 5537 5537 5538 5539 5540 5541 5542 5542 5543 5543 5543 5543 5543 5542 5542 5541 5540 5538 5537 5535 5533 5532 5530 5528 5526 5524 5521 5519 5516 5514 5513 5512 5510 5509 5508 5507
5489 5488 5486 5485 5484 5484 5483 5482 5482 5481 5481 5481 5481 5482 5483 5484 5485 5487 5489 5490 5492 5493 5495 5497 5498 5500 5501 5503 5505 5506 5507 5508 5510 5511 5513 5514 5516 5518 5520 5521 5523 5524 5526 5528 5529 5531 5532 5533 5534 5534 5535 5536 5537 5538 5539 5539 5540 5540 5541 5541 5541 5541 5540 5540 5539 5538 5537 5535 5534 5532 5530 5528 5527 5525 5523 5521 5519 5516 5514 5512 5511 5509 5508 5507 5506
5491 5489 5488 5487 5486 5485 5485 5484 5484 5484 5484 5484 5484 5485 5486 5487 5488 5490 5491 5492 5493 5495 5496 5497 5498 5500 5501 5502 5503 5505 5506 5507 5509 5510 5511 5513 5515 5517 5519 5520 5522 5524 5525 5527 5528 5529 5530 5531 5532 5532 5533 5534 5535 5535 5536 5537 5537 5538 5538 5538 5538 5538 5538 5537 5537 5536 5535 5534 5532 5531 5529 5527 5526 5524 5522 5521 5519 5517 5515 5512 5510 5508 5507 5505 5504